Погода в Таганроге

Погода в Таганроге : погода сейчас, прогноз погоды и архив. Всё, что Вы хотите узнать о погоде в Таганроге!

Хотите узнать прогноз погоды в Таганроге? Тогда Вам сюда: Погода в Таганроге

Поиск расширенной информации на нашем сайте:

Другие новости

Новости СМИ2

Главная страница сайта

Новости сайта

03.07.2017

Напоминаем, что на нашем специализированном сайте Метеоцентр.Азия вы можете получить высокодетализированные автоматические прогнозы погоды по пунктам России, СНГ и мира в авиационном формате (включающие направление и скорость ветра, видимость, явления погоды, количество и форму облачности, нижнюю и верхнюю границу облачности).

Рекомендуем: комплексное бухгалтерское обслуживание ип

Погода в Таганроге - сегодня

Время (UTC), дата Ветер
(°,м/с) 
Видим.   Явления Облачность Т
(°С)
Тd
(°С)
f(%) Тe
(°С)
Pmin
(гПа)
dP
(гПа)
Po
(мм)
O2
(г/м3)
Тmin Tmax R s Состояние
почвы
09 13.01.18 040 (СВ) 4{12}  20000 м  {снег}  8/8 600 м 
[Sc]
-4.9 -9 73 -8  1036.5  0.3  774  319           
12 13.01.18 060 (СВ) 4{11}  20000 м  {снег}  9/8 600 м средняя 
[St|Ac trans]
-4.2 -9.1 69 -7  1036  -0.5  774  318           
15 13.01.18 060 (СВ) 4-11{11}  20000 м    9/9 600 м 
[St]
-4.2 -8.5 72 -7  1036.7  0.7  774  318    -3.9  0.0     
18 13.01.18 060 (СВ) 5-10{13}  20000 м    9/4 1000 м средняя 
[Sc|Ac trans]
-5.3 -11 64 -9  1036.9  0.1  775  319           
21 13.01.18 060 (СВ) 4{12}  20000 м    9/9 600 м 
[St]
-5.7 -10 72 -9  1036  -0.9  774  319           
00 14.01.18 070 (В) 5-11{13}  20000 м    9/9 1000 м 
[Sc]
-5.7 -10 72 -10  1036  -0.8  773  319           
03 14.01.18 070 (В) 5-11{13}  20000 м    9/9 1000 м 
[Sc]
-7.6 -12 71 -12  1034.4  -0.8  773  321  -7.6      <0.5  равномерный
сухой снег
100% 
06 14.01.18 060 (СВ) 5-10{13}  20000 м    9/9 300 м 
[St]
-7.6 -10.7 78 -12  1034.3  773  321  -7.8         
09 14.01.18 050 (СВ) 4-10{12}  20000 м  {снег}  9/8 300 м средняя 
[St|Ac lent]
-6.2 -10.6 71 -10  1033.4  -0.9  772  319           
12 14.01.18 050 (СВ) 5-12{12}  20000 м  {снег}  9/9 300 м средняя 
[St|Ac trans]
-4.8 -11.1 61 -9  1031.8  -1.6  771  317           
15 14.01.18 060 (СВ) 6-12  20000 м    9/9 300 м 
[St]
-5.6 -12.5 58 -10  1032.3  0.5  771  318    -4.8  0.0     
18 14.01.18 050 (СВ) 4-10{13}  20000 м    10/10 300 м 
[St]
-7.6 -12.6 67 -11  1032.6  0.3  771  321           
21 14.01.18 050 (СВ) 5-10{13}  20000 м    10/10 300 м 
[St]
-8.2 -12.8 69 -13  1032  -0.7  771  321           
00 15.01.18 060 (СВ) 5-12{13}  20000 м    10/10 300 м 
[St]
-8.4 -13.5 67 -13  1031.3  -0.6  770  322           
03 15.01.18 050 (СВ) 10 км  слаб. снег  10/10 300 м 
[Frnb|Ns]
-8.6 -13.6 67 -13  1030.5  -0.8  770  322  -8.7    0.2     
06 15.01.18 060 (СВ) 4-11  2000 м  снег  10/10 300 м 
[Frnb|Ns]
-9.2 -10.7 89 -13  1030.1  -0.4  769  322  -9.2         
09 15.01.18 080 (В) 5-12  0500 м  метель{снег}  10/10 300 м 
[Frnb]
-8.4 -9.8 90 -13  1030.5  -0.4  770  321           
12 15.01.18 080 (В) 4{12}  10 км  слаб. снег  10/10 300 м 
[Frnb]
-7.3 -8.4 92 -11  1030.4  -0.1  770  320           
15 15.01.18 100 (В) 5-10{11}  н/о    н/о 
-5.4 -6.2 94 -9  1030  -0.3  769  317    -5.4       
18 15.01.18 170 (Ю) 6{10}  10 км  {снег}  10/10 300 м 
[St]
-3.9 -4.8 93 -8  1030.4  0.4  770  315           
21 15.01.18 160 (Ю) 10 км    9/9 300 м 
[St]
-3.4 -4.9 89 -8  1030.5  -0.1  770  315           
00 16.01.18 150 (ЮВ) 5{10}  10 км    10/10 600 м 
[Sc]
-3.1 -3.9 94 -7  1030.1  -0.4  770  314           
03 16.01.18 090 (В) 10 км  слаб. снег  10/10 300 м 
[Frnb]
-3.5 -4.2 95 -5  1029.3  -0.9  769  314  -5.4    0.5  равномерный
сухой снег
100% 
06 16.01.18 080 (В) 2000 м  снег  10/10 300 м 
[Frnb]
-3.9 -4.6 95 -6  1028.4  -0.9  768  315           
09 16.01.18 100 (В) 10 км  слаб. снег  10/10 300 м 
[Frnb|Ns]
-3.5 -4.1 96 -7  1026.9  -1.4  767  314           
Время (UTC), дата Ветер
(°,м/с) 
Видим.   Явления Облачность Т
(°С)
Тd
(°С)
f(%) Тe
(°С)
Pmin
(гПа)
dP
(гПа)
Po
(мм)
O2
(г/м3)
Тmin Tmax R s Состояние
почвы

Для получения пояснительной информации подведите курсор к названию столбца.

ПОГОДА в Таганроге - архив

Всё, что Вы хотите узнать о погоде в Таганроге - удобно и подробно!

Выберите нужную дату (начиная с 1 января 2015* года) и нажмите кнопку "Найти".
Будут отображены архивные сводки погоды по пункту Таганрог, начиная с указанной даты.


Отображать данные в формате CSV (для использования в таблицах Excel)


Внимание! Наш архив погоды предназначен исключительно для личного некоммерческого использования в познавательных целях. Если Вам необходимы официальные справки о состоянии погоды (для производственных, юридических, коммерческих и т.п. целей), обращайтесь в органы Росгидромета.

*Примечание: данная дата относится к архиву по метеостанциям СССР (Россия, СНГ, Балтия).
Архив по метеостанциям Зарубежной Европы и Азии (кроме Китая) хранится 10 дней, по другим регионам земного шара (Китай, Африка, Америка, Австралия, Океания) - 1 день.

Таганрог - район местоположения метеостанции


Название, широта, долгота, высота метеостанции:
Таганрог 47.2°ш. 38.9°д. 32 м над ур. моря [Российская Федерация]

Дополнительная информация

В oтличие oт бoльшинства пoгoдных сайтoв мы публикуем пoдрoбную метеoинфoрмацию в детальнoм прoфессиoнальнoм фoрмате.

Характеристики температуры и влажнoсти вoздуха измеряются на высoте 2 м в тени вдали oт зданий и деревьев.
Скoрoсть ветра измеряется на высoте 10 м (на урoвне рoста челoвека скoрoсть ветра ниже в 1.5-2 раза). Если метеoстанция нахoдится в гoрoде или в лесу, тo скoрoсть ветра занижена на 2-4 м/с пo сравнению с oткрытым местoм. Скoрoсть ветра над акватoриями крупных рек и oзёр, а также на вершинах хoлмoв на 2-5 м/с выше, чем в oбычных услoвиях.
Атмoсфернoе давление в разных тoчках местнoсти мoжет значительнo oтличаться oт давления на метеoстанции, в зависимoсти oт услoвий рельефа (при пoдъёме на 10 м давление пoнижается примернo на 1 мм рт.ст.).